Location: Asheville, NC
(35.6000°N, 82.5500°W)
Time: 23:44:07

NO-84 - Pass Details

Date: 10 March 2018
Orbit: 339 x 558 km, 55.0° (Epoch: 15 March)

Event Time Altitude Azimuth Distance (km) Brightness Sun altitude
Rises 05:57:14 0° 330° (NNW) 2,577 ? -11.1°
Reaches altitude 10° 06:00:11 10° 353° (N) 1,641 ? -10.5°
Maximum altitude 06:02:28 16° 32° (NNE) 1,297 ? -10.1°
Drops below altitude 10° 06:04:39 10° 70° (ENE) 1,555 ? -9.6°
Sets 06:07:20 0° 94° (E) 2,366 ? -9.1°
